Location: Big Bend
(41.8409°N, 79.0042°W)
Time: 14:32:17
(UTC+00:00)

ARIANE 6 FM1 Upper Stage - Visible Passes

Search period start: 13 October 2024 00:00
Search period end: 23 October 2024 00:00
Orbit: 563 x 595 km, 62.0° (Epoch: 12 October)

Date Brightness Start Highest point End Pass type
(mag) Time Alt. Az. Time Alt. Az. Time Alt. Az.
13 Oct 5.3 00:49:12 10° N 00:49:45 11° N 00:49:45 11° N visible
14 Oct 5.2 00:52:54 10° N 00:53:56 14° N 00:53:56 14° N visible
15 Oct 5.0 00:56:48 10° NNW 00:58:08 16° N 00:58:08 16° N visible
16 Oct 4.9 01:00:49 10° NNW 01:02:22 19° N 01:02:22 19° N visible
16 Oct 5.0 23:27:39 10° NNE 23:28:52 11° NNE 23:30:06 10° NE visible
17 Oct 4.8 01:04:55 10° NNW 01:06:38 22° NNW 01:06:38 22° NNW visible
17 Oct 4.7 23:30:59 10° N 23:33:27 15° NNE 23:34:41 13° NE visible
18 Oct 4.7 01:09:05 10° NW 01:10:59 25° NNW 01:10:59 25° NNW visible
18 Oct 4.3 23:34:44 10° N 23:37:58 20° NE 23:39:05 18° ENE visible
19 Oct 4.7 01:13:20 10° NW 01:15:23 27° NW 01:15:23 27° NW visible
19 Oct 3.8 23:38:37 10° NNW 23:42:22 27° NE 23:43:35 24° ENE visible
20 Oct 4.9 01:17:43 10° NW 01:19:53 25° WNW 01:19:53 25° WNW visible
20 Oct 3.3 23:42:35 10° NNW 23:46:43 40° NE 23:48:11 30° E visible
21 Oct 5.2 01:22:17 10° WNW 01:24:30 21° W 01:24:30 21° W visible
21 Oct 2.8 23:46:38 10° NNW 23:50:58 62° NE 23:52:58 30° ESE visible
22 Oct 5.5 01:27:16 10° WNW 01:29:18 15° WSW 01:29:18 15° WSW visible
22 Oct 2.7 23:50:46 10° NW 23:55:08 84° SW 23:57:58 21° SSE visible
